Stations météo

Publicité
Limoges, France (7434): Température de l'air & dewpoint: 10.02.2019 08:00:00 - 16.02.2019 08:00:00 (CET)Limoges, France (7434): Température de l'air 5cm: 10.02.2019 08:00:00 - 16.02.2019 08:00:00 (CET)Limoges, France (7434): Température de l'air -20cm & Température de l'air -100cm: 10.02.2019 08:00:00 - 16.02.2019 08:00:00 (CET)Limoges, France (7434): Vitesse du vent & gusts: 10.02.2019 08:00:00 - 16.02.2019 08:00:00 (CET)Limoges, France (7434): Direction du vent: 10.02.2019 08:00:00 - 16.02.2019 08:00:00 (CET)Limoges, France (7434): reduced air pressure: 10.02.2019 08:00:00 - 16.02.2019 08:00:00 (CET)Limoges, France (7434): visibility: 10.02.2019 08:00:00 - 16.02.2019 08:00:00 (CET)Limoges, France (7434): Ensoleillement: 10.02.2019 08:00:00 - 16.02.2019 08:00:00 (CET)Limoges, France (7434): Quantités de précipitations: 10.02.2019 08:00:00 - 16.02.2019 08:00:00 (CET)
Date & Time tt [°C] td [°C] tt 5cm [°C] tt -20cm [°C] tt -100cm [°C] ff [km/h] ff [knt] fx [km/h] fx [knt] dd ppp [hPa] vv [km] sd [min] rr [mm]
16.02.2019 08:00:00 3,3 -5,6 1,7 6,2 7,6 8 5 11 6 NE 1029,3 59 0 0,0
16.02.2019 07:00:00 4,0 -6,3 1,8 6,3 7,5 8 4 13 7 NE 1029,0 60 0 0,0
16.02.2019 06:00:00 4,2 -6,4 2,3 6,4 7,5 8 5 10 5 NE 1028,9 57 0 0,0
16.02.2019 05:00:00 4,3 -6,3 2,2 6,4 7,5 8 4 10 5 NE 1028,7 57 0 0,0
16.02.2019 04:00:00 5,5 -6,4 3,3 6,5 7,6 6 3 8 5 NE 1028,6 57 0 0,0
16.02.2019 03:00:00 6,4 -6,9 4,0 6,5 7,6 5 3 9 5 NE 1028,7 60 0 0,0
16.02.2019 02:00:00 6,5 -6,2 4,3 6,6 7,5 6 3 11 6 NE 1029,0 60 0 0,0
16.02.2019 01:00:00 7,9 -6,3 5,1 6,6 7,6 6 4 10 5 NNE 1028,5 54 0 0,0
16.02.2019 00:00:00 8,6 -8,5 3,1 6,6 7,5 6 4 9 5 NE 1028,1 46 0 0,0
15.02.2019 23:00:00 9,4 -8,7 3,4 6,6 7,5 2 1 5 3 SW 1027,9 51 0 0,0
15.02.2019 22:00:00 11,0 -9,4 3,6 6,6 7,6 4 2 5 3 E 1027,5 55 0 0,0
15.02.2019 21:00:00 10,9 -10,0 3,6 6,6 7,6 0 0 7 4 N 1027,5 60 0 0,0
15.02.2019 20:00:00 11,0 -8,8 4,1 6,5 7,5 4 2 10 5 SSW 1027,6 60 0 0,0
15.02.2019 19:00:00 11,8 -9,3 5,5 6,5 7,6 5 3 12 7 SW 1027,4 60 0 0,0
15.02.2019 18:00:00 14,8 -8,6 10,4 6,3 7,5 10 5 18 10 SW 1026,5 52 48 0,0
15.02.2019 17:00:00 17,1 -10,7 17,2 6,2 7,5 13 7 23 13 S 1026,0 57 60 0,0
15.02.2019 16:00:00 17,6 -10,3 20,0 6,1 7,6 14 8 24 13 S 1026,1 60 60 0,0
15.02.2019 15:00:00 17,5 -8,6 19,6 6,0 7,5 13 7 29 15 SE 1026,3 51 60 0,0
15.02.2019 14:00:00 16,4 -10,4 19,1 6,0 7,5 13 7 24 13 SE 1027,0 50 60 0,0
15.02.2019 13:00:00 15,2 -8,3 18,2 6,0 7,5 12 7 24 13 SE 1027,7 60 60 0,0
15.02.2019 12:00:00 13,4 -9,8 15,6 6,0 7,5 11 6 22 12 SE 1028,7 60 60 0,0
15.02.2019 11:00:00 11,8 -10,5 13,4 6,1 7,5 11 6 22 12 SE 1028,8 60 60 0,0
15.02.2019 10:00:00 9,9 -10,3 7,0 6,1 7,6 10 5 16 9 ESE 1029,1 53 60 0,0
15.02.2019 09:00:00 7,9 -10,5 5,0 6,2 7,6 5 3 11 6 E 1029,3 46 34 0,0
15.02.2019 08:00:00 7,2 -11,1 3,9 6,2 7,5 6 3 11 6 E 1029,1 60 0 0,0
15.02.2019 07:00:00 6,5 -9,0 4,1 6,3 7,6 7 4 16 9 E 1029,1 60 0 0,0
15.02.2019 06:00:00 6,1 -7,2 2,7 6,4 7,6 9 5 13 7 E 1029,3 60 0 0,0
15.02.2019 05:00:00 5,7 -6,6 2,9 6,4 7,6 7 4 14 7 ESE 1029,0 56 0 0,0
15.02.2019 04:00:00 5,9 -5,4 3,7 6,5 7,6 11 6 18 10 ESE 1029,1 60 0 0,0
15.02.2019 03:00:00 5,5 -3,9 2,6 6,5 7,6 13 7 19 10 ESE 1029,8 43 0 0,0
15.02.2019 02:00:00 5,6 -1,8 3,6 6,5 7,6 10 5 16 8 E 1029,9 27 0 0,0
15.02.2019 01:00:00 6,4 -0,6 4,7 6,5 7,5 9 5 16 9 ESE 1029,8 40 0 0,0
15.02.2019 00:00:00 7,6 -0,4 4,0 6,5 7,6 11 6 18 10 SE 1029,7 35 0 0,0
14.02.2019 23:00:00 8,3 -0,2 5,2 6,5 7,6 7 4 10 5 E 1029,6 27 0 0,0
14.02.2019 22:00:00 9,1 -0,3 4,7 6,5 7,6 6 3 13 7 ESE 1029,7 19 0 0,0
14.02.2019 21:00:00 9,9 -0,1 3,7 6,5 7,6 5 3 7 4 ESE 1029,6 33 0 0,0
14.02.2019 20:00:00 9,8 -0,1 3,9 6,4 7,5 5 3 7 4 SSE 1029,6 51 0 0,0
14.02.2019 19:00:00 10,3 -0,2 4,9 6,3 7,6 4 2 5 3 SSW 1029,7 60 0 0,0
14.02.2019 18:00:00 13,3 0,0 9,4 6,2 7,6 4 2 13 7 SSW 1028,9 60 48 0,0
14.02.2019 17:00:00 15,0 0,0 16,0 6,1 7,6 10 5 15 8 S 1028,8 53 60 0,0
14.02.2019 16:00:00 15,3 -0,9 17,9 6,0 7,6 8 5 22 12 SE 1029,0 58 60 0,0
14.02.2019 15:00:00 14,3 -1,4 16,7 5,9 7,5 10 5 24 13 SSE 1029,6 60 60 0,0
14.02.2019 14:00:00 13,5 -0,9 16,7 5,9 7,6 13 7 29 16 S 1030,6 51 60 0,0
14.02.2019 13:00:00 12,6 -0,3 15,1 5,9 7,6 16 9 29 16 SSE 1031,6 48 60 0,0
14.02.2019 12:00:00 10,8 -1,3 12,7 5,9 7,6 16 9 30 16 SSE 1032,4 57 60 0,0
14.02.2019 11:00:00 9,1 -3,8 10,8 6,0 7,6 15 8 25 13 SE 1032,7 59 60 0,0
14.02.2019 10:00:00 7,4 -5,0 4,6 6,0 7,6 12 7 17 9 ESE 1032,9 39 60 0,0
14.02.2019 09:00:00 5,4 -5,3 1,6 6,1 7,5 9 5 13 7 ESE 1033,3 39 32 0,0
14.02.2019 08:00:00 5,1 -6,5 1,6 6,1 7,6 7 4 12 7 E 1033,0 60 0 0,0
14.02.2019 07:00:00 4,1 -5,9 2,0 6,2 7,6 9 5 13 7 E 1032,9 60 0 0,0
14.02.2019 06:00:00 3,4 -5,0 1,7 6,2 7,6 9 5 15 8 E 1033,1 60 0 0,0
14.02.2019 05:00:00 3,9 -5,1 2,4 6,3 7,6 10 5 13 7 E 1033,0 60 0 0,0
14.02.2019 04:00:00 4,7 -4,6 2,7 6,4 7,6 8 4 15 8 ENE 1033,0 60 0 0,0
14.02.2019 03:00:00 5,1 -4,5 2,2 6,4 7,6 8 4 10 5 ENE 1033,3 55 0 0,0
14.02.2019 02:00:00 5,1 -4,2 2,3 6,4 7,6 7 4 10 6 ESE 1033,3 54 0 0,0
14.02.2019 01:00:00 5,5 -3,9 2,8 6,5 7,6 5 3 16 9 E 1033,4 47 0 0,0
14.02.2019 00:00:00 5,7 -3,1 3,1 6,5 7,6 6 3 12 7 ENE 1033,0 50 0 0,0
13.02.2019 23:00:00 6,3 -3,6 4,5 6,5 7,6 9 5 14 8 NE 1032,8 49 0 0,0
13.02.2019 22:00:00 8,4 -5,1 4,7 6,5 7,6 5 3 9 5 NE 1032,2 40 0 0,0
13.02.2019 21:00:00 9,4 -4,2 2,8 6,4 7,6 4 2 6 3 E 1031,7 60 0 0,0
13.02.2019 20:00:00 8,9 -4,7 3,1 6,4 7,6 0 0 6 3 N 1031,9 59 0 0,0
13.02.2019 19:00:00 9,2 -4,8 4,1 6,3 7,6 5 3 9 5 W 1031,8 51 0 0,0
13.02.2019 18:00:00 12,2 -6,3 8,8 6,2 7,6 4 2 9 5 SSE 1030,8 60 47 0,0
13.02.2019 17:00:00 13,6 -6,1 14,6 6,1 7,6 7 4 17 9 SSE 1030,6 56 60 0,0
13.02.2019 16:00:00 13,6 -5,6 16,7 6,0 7,6 10 5 22 12 SE 1030,6 56 60 0,0
13.02.2019 15:00:00 12,8 -3,5 14,7 6,0 7,6 13 7 27 14 SSE 1030,7 58 60 0,0
13.02.2019 14:00:00 11,9 -3,1 14,6 6,0 7,6 13 7 26 14 SE 1031,3 60 60 0,0
13.02.2019 13:00:00 10,3 -2,4 13,0 6,0 7,6 8 4 19 10 E 1032,0 60 60 0,0
13.02.2019 12:00:00 8,0 -4,2 9,6 6,0 7,6 11 6 23 13 SE 1032,6 51 60 0,0
13.02.2019 11:00:00 6,3 -3,6 8,1 6,0 7,6 15 8 22 12 ESE 1032,6 60 60 0,0
13.02.2019 10:00:00 4,3 -2,8 1,7 6,1 7,6 16 9 26 14 E 1033,2 60 60 0,0
13.02.2019 09:00:00 2,0 -2,7 0,2 6,1 7,6 16 9 22 12 ENE 1033,3 47 31 0,0
13.02.2019 08:00:00 1,6 -3,1 0,6 6,2 7,6 20 11 38 21 ENE 1033,2 56 0 0,0
13.02.2019 07:00:00 1,3 -1,8 0,4 6,3 7,6 27 14 38 20 ENE 1033,3 33 0 0,0
13.02.2019 06:00:00 1,6 -1,3 0,6 6,4 7,6 27 14 40 22 ENE 1033,6 31 0 0,0
13.02.2019 05:00:00 1,8 -1,5 0,2 6,4 7,6 23 12 35 19 ENE 1033,6 36 0 0,0
13.02.2019 04:00:00 1,2 -1,7 0,2 6,5 7,6 19 11 29 16 NE 1033,8 34 0 0,0
13.02.2019 03:00:00 1,3 -1,9 0,4 6,5 7,6 18 10 27 15 NE 1034,3 35 0 0,0
13.02.2019 02:00:00 1,8 -1,8 0,7 6,6 7,5 20 11 27 14 NE 1034,6 42 0 0,0
13.02.2019 01:00:00 2,1 -1,5 0,9 6,6 7,6 16 8 25 14 ENE 1035,1 42 0 0,0
13.02.2019 00:00:00 2,8 -1,0 1,4 6,6 7,6 21 11 27 14 NE 1035,2 44 0 0,0
12.02.2019 23:00:00 3,3 -0,7 2,0 6,6 7,6 16 9 26 14 NE 1035,5 44 0 0,0
12.02.2019 22:00:00 3,9 -0,5 2,8 6,6 7,6 18 10 24 13 NE 1035,5 43 0 0,0
12.02.2019 21:00:00 4,6 -0,4 3,6 6,6 7,6 16 9 22 12 NE 1035,3 45 0 0,0
12.02.2019 20:00:00 5,2 0,2 3,4 6,5 7,6 17 9 22 12 NNE 1035,3 49 0 0,0
12.02.2019 19:00:00 5,5 -0,8 3,7 6,5 7,6 10 5 21 11 NNE 1035,1 60 0 0,0
12.02.2019 18:00:00 7,5 -0,5 6,2 6,4 7,6 12 7 21 11 NNE 1034,4 59 48 0,0
12.02.2019 17:00:00 9,2 0,1 10,3 6,3 7,5 10 6 21 11 NNE 1033,8 56 60 0,0
12.02.2019 16:00:00 9,4 0,8 12,0 6,2 7,6 10 5 18 10 NNE 1034,1 58 60 0,0
12.02.2019 15:00:00 9,5 1,9 12,9 6,2 7,6 8 4 19 10 S 1034,5 19 60 0,0
12.02.2019 14:00:00 8,1 3,0 12,2 6,1 7,5 9 5 17 9 SSW 1035,4 20 57 0,0
12.02.2019 13:00:00 8,0 2,0 11,8 6,2 7,5 8 4 18 10 ENE 1036,1 20 60 0,0
12.02.2019 12:00:00 5,3 2,6 6,9 6,2 7,5 5 3 12 6 E 1037,0 24 60 0,0
12.02.2019 11:00:00 2,9 1,6 4,3 6,3 7,6 9 5 13 7 E 1037,2 10 58 0,0
12.02.2019 10:00:00 1,2 0,9 0,1 6,3 7,5 8 5 11 6 NE 1037,7 4,6 60 0,0
12.02.2019 09:00:00 0,5 0,4 -1,9 6,4 7,5 7 4 10 5 NE 1037,4 0,8 33 0,0
12.02.2019 08:00:00 0,8 0,5 -2,7 6,5 7,5 3 2 7 4 E 1036,9 3,4 0 0,0
12.02.2019 07:00:00 0,0 -0,7 -1,7 6,5 7,5 4 2 7 4 ENE 1036,5 0,1 0 0,0
12.02.2019 06:00:00 1,2 0,6 -1,6 6,6 7,5 2 1 6 3 NE 1036,3 1,9 0 0,0
12.02.2019 05:00:00 1,7 1,0 -0,1 6,6 7,5 4 2 10 5 NE 1035,5 20 0 0,0
12.02.2019 04:00:00 1,7 0,4 -0,1 6,7 7,5 5 3 12 7 NE 1035,3 22 0 0,0
12.02.2019 03:00:00 2,1 0,9 -0,7 6,7 7,5 5 3 7 4 NE 1035,4 24 0 0,0
12.02.2019 02:00:00 2,5 0,4 -0,7 6,8 7,5 2 1 5 3 E 1035,4 35 0 0,0
12.02.2019 01:00:00 3,2 0,4 0,3 6,8 7,5 5 3 14 7 NE 1035,0 53 0 0,0
12.02.2019 00:00:00 3,6 1,5 1,0 6,8 7,5 8 5 13 7 N 1034,6 43 0 0,0
11.02.2019 23:00:00 4,0 2,0 1,7 6,8 7,5 6 3 12 7 N 1034,3 33 0 0,0
11.02.2019 22:00:00 4,7 2,7 2,9 6,8 7,5 6 4 9 5 N 1033,9 20 0 0,0
11.02.2019 21:00:00 4,9 2,9 3,1 6,8 7,5 6 3 13 7 N 1033,2 33 0 0,0
11.02.2019 20:00:00 5,7 3,0 4,9 6,8 7,5 6 4 13 7 NW 1032,5 40 0 0,0
11.02.2019 19:00:00 5,6 3,3 4,4 6,7 7,5 6 4 11 6 WNW 1031,7 42 0 0,0
11.02.2019 18:00:00 5,7 3,5 4,9 6,7 7,5 7 4 23 12 NW 1030,9 49 2 0,0
11.02.2019 17:00:00 6,5 3,1 5,7 6,6 7,5 10 5 35 19 NNW 1029,9 18 3 0,2
11.02.2019 16:00:00 7,6 2,1 6,9 6,6 7,5 17 9 28 15 WNW 1029,1 18 18 0,0
11.02.2019 15:00:00 7,5 1,8 7,8 6,6 7,5 16 9 32 18 NNW 1028,7 49 8 0,0
11.02.2019 14:00:00 7,3 2,6 6,7 6,5 7,5 19 11 35 19 WNW 1028,2 43 28 0,0
11.02.2019 13:00:00 5,8 4,1 5,9 6,6 7,5 17 9 39 21 W 1028,6 16 7 0,0
11.02.2019 12:00:00 5,7 2,9 6,1 6,6 7,5 19 10 33 18 WNW 1028,6 19 13 0,0
11.02.2019 11:00:00 4,4 2,9 5,3 6,6 7,5 15 8 27 15 W 1028,1 20 23 0,0
11.02.2019 10:00:00 3,3 3,2 3,1 6,6 7,5 10 6 18 10 W 1027,7 9 10 0,0
11.02.2019 09:00:00 2,6 2,5 2,1 6,7 7,4 9 5 24 13 W 1026,9 0,2 0 0,0
11.02.2019 08:00:00 2,5 2,2 1,8 6,7 7,4 13 7 24 13 WNW 1025,5 1,6 0 0,0
11.02.2019 07:00:00 2,4 2,1 0,1 6,8 7,4 13 7 21 12 W 1024,9 9 0 0,0
11.02.2019 06:00:00 2,2 1,8 0,9 6,8 7,5 11 6 28 15 WNW 1024,5 15 0 0,0
11.02.2019 05:00:00 2,4 1,8 1,0 6,9 7,4 19 11 30 16 W 1024,0 16 0 0,0
11.02.2019 04:00:00 2,8 1,9 1,6 6,9 7,4 15 8 33 18 W 1023,6 17 0 0,0
11.02.2019 03:00:00 3,5 2,2 2,3 6,9 7,4 18 10 31 17 W 1023,1 19 0 0,0
11.02.2019 02:00:00 4,0 2,5 3,2 6,9 7,4 17 9 30 16 W 1022,8 19 0 0,0
11.02.2019 01:00:00 4,1 2,8 3,1 7,0 7,4 16 9 28 15 W 1021,9 15 0 0,0
11.02.2019 00:00:00 4,1 2,9 3,0 7,0 7,4 14 8 31 17 W 1021,3 15 0 0,0
10.02.2019 23:00:00 4,2 2,7 3,0 7,0 7,4 14 8 35 19 WSW 1020,8 17 0 0,0
10.02.2019 22:00:00 5,0 3,0 4,2 7,0 7,4 17 9 38 21 W 1020,2 19 0 0,0
10.02.2019 21:00:00 5,5 3,5 4,6 7,0 7,4 17 9 36 19 WSW 1019,1 18 0 0,0
10.02.2019 20:00:00 5,5 3,2 4,6 7,1 7,4 16 9 42 23 WSW 1018,4 19 0 0,0
10.02.2019 19:00:00 5,7 2,9 4,8 7,0 7,4 22 12 52 28 WSW 1017,1 40 0 0,0
10.02.2019 18:00:00 5,7 3,0 4,5 7,0 7,3 24 13 45 25 WSW 1015,8 38 0 0,4
10.02.2019 17:00:00 6,1 2,5 4,7 7,0 7,4 25 14 54 29 WSW 1015,1 8 2 0,2
10.02.2019 16:00:00 6,9 2,4 5,4 7,0 7,4 29 16 67 36 W 1014,4 35 20 0,2
10.02.2019 15:00:00 7,4 2,3 7,9 7,0 7,3 29 16 79 43 W 1012,7 16 46 0,0
10.02.2019 14:00:00 5,3 3,0 3,8 7,0 7,3 40 21 97 53 W 1012,0 16 5 1,5
10.02.2019 13:00:00 6,2 5,0 5,8 7,0 7,3 27 14 74 40 W 1010,4 3,3 0 1,6
10.02.2019 12:00:00 6,9 5,7 6,5 7,0 7,3 23 13 88 47 WSW 1009,6 19 0 2,2
10.02.2019 11:00:00 7,7 6,3 6,8 7,0 7,3 41 22 62 34 SSW 1008,0 9 0 0,8
10.02.2019 10:00:00 7,7 5,8 6,6 7,0 7,3 40 21 63 34 SSW 1007,6 19 0 0,2
10.02.2019 09:00:00 7,4 5,7 6,4 7,0 7,3 34 18 56 30 S 1007,3 33 0 0,6
10.02.2019 08:00:00 7,2 5,8 6,4 7,0 7,3 29 15 44 24 S 1007,6 40 0 0,4

tt = Température de l'air
td = dewpoint
tt 5cm = Température de l'air 5cm
tt -20cm = Température de l'air -20cm
tt -100cm = Température de l'air -100cm
ff = Vitesse du vent
fx = gusts
dd = Direction du vent
ppp = reduced air pressure
vv = visibility
sd = Ensoleillement
rr = Quantités de précipitations

stations d'obs. à proximité